Regional Weather Roundup
Issued by NWS

Home | Current Version | Previous Version | Graphics & Text | Print | Product List | Glossary Off
Versions: 1 2 3 4 5 6 7 8 9 10 11 12 13 14 15 16 17 18 19 20 21 22 23 24 25 26 27 28 29 30 31 32 33 34 35 36 37 38 39 40 41 42 43 44 45 46 47 48 49 50

000
ASUS43 KIND 250309
RWRIN

WEATHER ROUNDUP FOR INDIANA
NATIONAL WEATHER SERVICE INDIANAPOLIS IN
1100 PM EDT THU APR 24 2014

NOTE: "FAIR" INDICATES FEW OR NO CLOUDS BELOW 12,000 FEET WITH NO
SIGNIFICANT WEATHER AND/OR OBSTRUCTIONS TO VISIBILITY.

* - STATION DOES NOT REPORT WEATHER SUCH AS PRECIPITATION OR FOG.

+ - STATION NOT QUALITY CONTROLLED BY THE NATIONAL WEATHER SERVICE.
    USE DATA WITH CAUTION...ESPECIALLY DEWPOINT AND RELATIVE
    HUMIDITY OBSERVATIONS.

INZ001>003-010>013-019-020-250400-
NORTHWEST INDIANA

CITY           SKY/WX    TMP DP  RH WIND       PRES   REMARKS
GARY /AIRPORT/ CLOUDY    60  26  28 SE14      29.70F
LA PORTE +     DRIZZLE   55  24  30 SE10G16   29.76S
MICHIGAN CITY+ LGT RAIN  55  23  28 SE14      29.74F
MONTICELLO +   CLOUDY    58  33  38 SE9       29.71F
RENSSELAER +   CLOUDY    59  30  33 E16       29.70F
VALPARAISO     CLOUDY    56  25  30 SE15      29.73F

$$

LMZ046-743>745-250400-
SOUTHERN LAKE MICHIGAN

STATION/POSITION TIME  TEMP WIND        PRES
                       AIR  DIR/SP/G
                 (UTC) (F)  (DEG/KT/KT) (MB)
MICHIGAN CITY    0300   58  110/ 14/ 19   N/A

$$

INZ004-005-014>016-021>024-250400-
NORTH CENTRAL INDIANA

CITY           SKY/WX    TMP DP  RH WIND       PRES   REMARKS
GOSHEN         CLOUDY    54  28  36 E13G24    29.78F
LOGANSPORT +   DRIZZLE   54  32  43 E10       29.75F
PERU/GRISSOM   CLOUDY    56  31  38 E12       29.75F
ROCHESTER +    CLOUDY    59  25  27 SE13G21   29.76F
SOUTH BEND     CLOUDY    56  26  31 SE13      29.78F
WARSAW +       CLOUDY    54  27  35 SE13G18   29.77F

$$

INZ006>009-017-018-025>027-250400-
NORTHEAST INDIANA

CITY           SKY/WX    TMP DP  RH WIND       PRES   REMARKS
ANGOLA *+      CLEAR     45  28  53 SE13      29.83F
AUBURN +       CLOUDY    46  28  49 E8        29.83F
FORT WAYNE     CLOUDY    53  26  35 E13       29.81F

$$

INZ028-029-035-036-043>045-051>053-250400-
WEST CENTRAL INDIANA

CITY           SKY/WX    TMP DP  RH WIND       PRES   REMARKS
GREENCASTLE +  MOCLDY    59  41  51 E7        29.71F
LAFAYETTE      CLOUDY    58  41  53 SE12      29.70F
TERRE HAUTE    CLOUDY    64  39  39 SE7       29.67F

$$

INZ030>032-037>040-046>048-054>057-064-065-250400-
CENTRAL INDIANA

CITY           SKY/WX    TMP DP  RH WIND       PRES   REMARKS
CP ATTERBURY + MOCLDY    59  39  47 SE6       29.75F
GREENWOOD *+   CLOUDY    59  37  44 SE8       29.75F
INDIANAPOLIS   MOCLDY    59  36  42 E16       29.72F
-EAGLE CREEK   CLOUDY    60  35  39 SE10      29.73F
KOKOMO *+        N/A    N/A N/A N/A MISG        N/A
MARION +       CLOUDY    55  24  29 SE13      29.77F
MT COMFORT *+  CLOUDY    59  32  36 SE13      29.75F
SHELBYVILLE    CLOUDY    59  35  40 E13       29.74F
ZIONSVILLE +   CLOUDY    59  29  31 SE10      29.74F

$$

INZ033-034-041-042-049-050-058-059-250400-
EAST CENTRAL INDIANA

CITY           SKY/WX    TMP DP  RH WIND       PRES   REMARKS
MUNCIE         CLOUDY    57  26  30 SE14      29.78F

$$

INZ060-061-067>069-081>083-085>088-250400-
SOUTHWEST INDIANA

CITY           SKY/WX    TMP DP  RH WIND       PRES   REMARKS
EVANSVILLE     CLOUDY    71  40  32 S7        29.69R
HUNTINGBURG *+ MOCLDY    64  43  45 SE9       29.70S
WASHINGTON +   MOCLDY    64  42  46 SE5       29.68S

$$

INZ062-063-066-070>080-084-089>092-250400-
SOUTH CENTRAL AND SOUTHEAST INDIANA

CITY           SKY/WX    TMP DP  RH WIND       PRES   REMARKS
BLOOMINGTON    CLOUDY    63  40  42 SE8       29.72F

$$




USA.gov is the U.S. government's official web portal to all federal, state and local government web resources and services.